Regional Weather Roundup
Issued by NWS

Home | Current Version | Previous Version | Text Only | Print | Product List | Glossary On
Versions: 1 2 3 4 5 6 7 8 9 10 11 12 13 14 15 16 17 18 19 20 21 22 23 24 25 26 27 28 29 30 31 32 33 34 35 36 37 38 39 40 41 42 43 44 45 46 47 48 49 50
854
ASUS44 KLIX 160405
RWRLA
LOUISIANA WEATHER ROUNDUP
NATIONAL WEATHER SERVICE NEW ORLEANS LA
1100 PM CDT MON SEP 15 2014

NOTE: "FAIR" INDICATES FEW OR NO CLOUDS BELOW 12,000 FEET WITH NO
      SIGNIFICANT WEATHER AND/OR OBSTRUCTIONS TO VISIBILITY.
      SKY/WX - SKY CONDITION AND SIGNIFICANT WEATHER.
      TMP - AIR TEMPERATURE.    DP   - DEWPOINT TEMPERATURE.
      RH  - RELATIVE HUMIDITY.  PRES - PRESSURE.
      HX  - HEAT INDEX.         WCI  - WIND CHILL INDEX.

*  THESE STATIONS ARE NOT NWS OR FAA STATIONS AND ARE NOT UNDER
   NWS QUALITY CONTROL.

LAZ040-048-061>063-065-066-069-160500-
SOUTHEAST LOUISIANA

CITY           SKY/WX    TMP DP  RH WIND       PRES   REMARKS
N.O. AUDUBON   NOT AVBL
N.O. INTL ARPT CLOUDY    79  76  90 CALM      30.09R
N.O. LAKEFRONT CLOUDY    82  76  81 CALM      30.10R
N.O. DOWNTOWN* FAIR      82  73  74 S3        30.09S
SLIDELL        MOCLDY    78  73  84 CALM      30.08F
BATON ROUGE    PTCLDY    75  74  96 CALM      30.10R
BOOTHVILLE     CLOUDY    82  76  81 SW3       30.10R
BELLE CHASSE   MOCLDY    78  73  84 CALM      30.09R
BOGALUSA*      LGT RAIN  77  73  87 CALM      30.10F
GALLIANO*      NOT AVBL
NEW ROADS*     MOCLDY    77  74  91 CALM      30.11R
GONZALES*      FAIR      76  76 100 CALM      30.08S
HAMMOND*       MOCLDY    79  73  83 CALM      30.12R
HOUMA*         CLEAR     76  73  90 CALM      30.09S
PORT FOURCHON*   N/A     82  75  78 CALM      30.13R

$$

LAZ041-044-053-054-160500-
SOUTHWEST LOUISIANA

CITY           SKY/WX    TMP DP  RH WIND       PRES   REMARKS
LAKE CHARLES   CLOUDY    79  76  90 CALM      30.08R
LAFAYETTE      PTCLDY    75  74  96 N5        30.10R
PATTERSON      PTCLDY    75  75 100 CALM      30.12S
SALT POINT       N/A     80  77  90 CALM      30.09R
NEW IBERIA     PTCLDY    76  74  93 CALM      30.10R
CHENAULT AIRPK MOCLDY    80  75  84 CALM      30.10S

$$

LAZ027-028-160500-
CENTRAL LOUISIANA

CITY           SKY/WX    TMP DP  RH WIND       PRES   REMARKS
FORT POLK      CLOUDY    78  74  87 NE5       30.11R
ALEXANDRIA INT MOCLDY    77  73  87 N3        30.09R
ALEXANDRIA     PTCLDY    77  73  87 CALM      30.11R

$$

LAZ001-002-160500-
NORTHWEST LOUISIANA

CITY           SKY/WX    TMP DP  RH WIND       PRES   REMARKS
SHREVEPORT     CLOUDY    77  70  79 NE5       30.11S
BARKSDALE AFB  CLOUDY    74  70  86 NE2       30.12S
DTN SHREVEPORT CLOUDY    74  71  91 CALM      30.12S

$$

LAZ014-016-160500-
NORTHEAST LOUISIANA

CITY           SKY/WX    TMP DP  RH WIND       PRES   REMARKS
MONROE         PTCLDY    74  70  87 NE3       30.12R
TALLULAH       MOCLDY    76  69  79 N5        30.11S

$$




USA.gov is the U.S. government's official web portal to all federal, state and local government web resources and services.